Regional Weather Roundup
Issued by NWS

Home | Current Version | Previous Version | Graphics & Text | Print | Product List | Glossary On
Versions: 1 2 3 4 5 6 7 8 9 10 11 12 13 14 15 16 17 18 19 20 21 22 23 24 25 26 27 28 29 30 31 32 33 34 35 36 37 38 39 40 41 42 43 44 45 46 47 48 49 50
000
ASUS43 KIND 212209
RWRIN

WEATHER ROUNDUP FOR INDIANA
NATIONAL WEATHER SERVICE INDIANAPOLIS IN
500 PM EST TUE FEB 21 2017

NOTE: "FAIR" INDICATES FEW OR NO CLOUDS BELOW 12,000 FEET WITH NO
SIGNIFICANT WEATHER AND/OR OBSTRUCTIONS TO VISIBILITY.

* - STATION DOES NOT REPORT WEATHER SUCH AS PRECIPITATION OR FOG.

+ - STATION NOT QUALITY CONTROLLED BY THE NATIONAL WEATHER SERVICE.
    USE DATA WITH CAUTION...ESPECIALLY DEWPOINT AND RELATIVE
    HUMIDITY OBSERVATIONS.

INZ001>003-010>013-019-020-212300-
NORTHWEST INDIANA

CITY           SKY/WX    TMP DP  RH WIND       PRES   REMARKS
GARY /AIRPORT/ PTSUNNY   66  54  63 SW7       29.91R
KNOX *+        CLOUDY    63  32  31 W3        29.92S
LA PORTE +     MOSUNNY   63  53  72 SW7       29.93R
MICHIGAN CITY+ CLOUDY    64  52  63 SW6       29.92S
MONTICELLO +   CLOUDY    61  51  69 CALM      29.91F
RENSSELAER +   CLOUDY    63  55  77 SE3       29.92S
VALPARAISO     CLOUDY    65  54  67 SW6       29.92S

$$

LMZ046-743>745-212300-
SOUTHERN LAKE MICHIGAN

STATION/POSITION TIME  TEMP    WIND        PRES    WAVE
                       AIR SEA DIR/SP/G            HT
                 (UTC) (F)     (DEG/KT/KT) (MB)    (FT)
BURNS HARBOR     2140   50      80/  4/  5 1013.5R
MICHIGAN CITY    2140   50      30/  5/  5   N/A

$$

INZ004-005-014>016-021>024-212300-
NORTH CENTRAL INDIANA

CITY           SKY/WX    TMP DP  RH WIND       PRES   REMARKS
ELKHART        PTSUNNY   63  50  63 SW5       29.93R
GOSHEN         PTSUNNY   61  50  67 S7        29.93S
LOGANSPORT +   CLOUDY    59  52  77 SE7       29.92F
PERU/GRISSOM   CLOUDY    59  54  84 SE3       29.91S
ROCHESTER +    PTSUNNY   63  52  67 CALM      29.93F
SOUTH BEND     PTSUNNY   62  53  72 S7        29.94R
WARSAW +       CLOUDY    59  50  72 CALM      29.94S

$$

INZ006>009-017-018-025>027-212300-
NORTHEAST INDIANA

CITY           SKY/WX    TMP DP  RH WIND       PRES   REMARKS
ANGOLA *+      CLOUDY    57  48  72 S5        29.94S
AUBURN +       CLOUDY    59  48  67 CALM      29.95S
FORT WAYNE     CLOUDY    60  49  66 CALM      29.94S
HUNTINGTON +   CLOUDY    58  48  69 CALM      29.93S
KENDALLVILLE + PTSUNNY   59  50  72 S7        29.95S

$$

INZ028-029-035-036-043>045-051>053-212300-
WEST CENTRAL INDIANA

CITY           SKY/WX    TMP DP  RH WIND       PRES   REMARKS
GREENCASTLE +  CLOUDY    61  50  67 S5        29.93S
LAFAYETTE      CLOUDY    61  51  70 SE5       29.92R
TERRE HAUTE    CLOUDY    63  50  62 S12       29.93R

$$

INZ030>032-037>040-046>048-054>057-064-065-212300-
CENTRAL INDIANA

CITY           SKY/WX    TMP DP  RH WIND       PRES   REMARKS
CP ATTERBURY + DRIZZLE   59  52  77 S6        29.96R
COLUMBUS       CLOUDY    57  55  94 S7        29.96R
FRANKFORT +    CLOUDY    62  54  75 CALM      29.94S
GREENWOOD *+   CLOUDY    63  51  65 CALM      29.94S
INDIANAPOLIS   CLOUDY    63  48  58 S7        29.93S
-EAGLE CREEK   CLOUDY    64  47  53 S3        29.92S
KOKOMO +       CLOUDY    59  51  75 CALM      29.93S
MARION +       CLOUDY    60  49  68 S3        29.94S
MT COMFORT *+  CLOUDY    61  48  63 S3        29.94S
SHELBYVILLE    CLOUDY    62  49  62 S15       29.94R
ZIONSVILLE +   CLOUDY    60  48  64 S6        29.93F

$$

INZ033-034-041-042-049-050-058-059-212300-
EAST CENTRAL INDIANA

CITY           SKY/WX    TMP DP  RH WIND       PRES   REMARKS
MUNCIE         CLOUDY    63  47  55 S7        29.94S

$$

INZ060-061-067>069-081>083-085>088-212300-
SOUTHWEST INDIANA

CITY           SKY/WX    TMP DP  RH WIND       PRES   REMARKS
EVANSVILLE     CLOUDY    64  54  69 SE9       29.92S
HUNTINGBURG *+ CLOUDY    64  54  68 E6        29.92F
WASHINGTON +   LGT RAIN  59  53  81 CALM      29.92S

$$

INZ062-063-066-070>080-084-089>092-212300-
SOUTH CENTRAL AND SOUTHEAST INDIANA

CITY           SKY/WX    TMP DP  RH WIND       PRES   REMARKS
BEDFORD +      RAIN     N/A N/A N/A CALM      29.95R
BLOOMINGTON    LGT RAIN  57  52  83 SE7       29.95R
MADISON *+     CLOUDY    59  55  88 NW5       29.98R
NORTH VERNON + RAIN      59  59 100 CALM      29.97R
SEYMOUR +      DRIZZLE   59  54  82 CALM      29.96R

$$




USA.gov is the U.S. government's official web portal to all federal, state and local government web resources and services.